This is the latest recevied weather packets stored in our database for station/object W4MLN-3. If no packets are shown the sender has not sent any weather packets the latest 10 day(s).
| Time | Temp. | Humidity | Pressure | Rain* | Wind** | Luminosity | Snow |
|---|---|---|---|---|---|---|---|
| 1787470503 | 18.89° C | 82% | 1015.7 hPa | 0 mm | - | - | - |
| 1787470224 | 18.89° C | 82% | 1015.9 hPa | 0 mm | - | - | - |
| 1787469903 | 18.89° C | 82% | 1016 hPa | 0 mm | - | - | - |
| 1787469625 | 18.89° C | 82% | 1015.9 hPa | 0 mm | - | - | - |
| 1787469303 | 18.89° C | 82% | 1015.9 hPa | 0 mm | - | - | - |
| 1787469003 | 18.89° C | 82% | 1015.9 hPa | 0 mm | - | - | - |
| 1787468724 | 18.33° C | 83% | 1016 hPa | 0 mm | - | - | - |
| 1787468403 | 18.33° C | 83% | 1016 hPa | 0 mm | - | - | - |
| 1787468104 | 18.33° C | 83% | 1016.1 hPa | 0 mm | - | - | - |
| 1787467803 | 18.89° C | 83% | 1016.1 hPa | 0 mm | - | - | - |
| 1787467503 | 18.89° C | 82% | 1016.1 hPa | 0 mm | - | - | - |
| 1787467203 | 18.89° C | 81% | 1016.2 hPa | 0 mm | - | - | - |
| 1787466903 | 19.44° C | 80% | 1016.1 hPa | 0 mm | - | - | - |
| 1787466625 | 19.44° C | 79% | 1016.2 hPa | 0 mm | - | - | - |
| 1787466303 | 19.44° C | 79% | 1016.1 hPa | 0 mm | - | - | - |
| 1787466003 | 19.44° C | 76% | 1016.1 hPa | 0 mm | - | - | - |
| 1787465703 | 20° C | 77% | 1016.2 hPa | 0 mm | - | - | - |
| 1787465403 | 20° C | 78% | 1016.3 hPa | 0 mm | - | - | - |
| 1787465103 | 20° C | 78% | 1016.1 hPa | 0 mm | - | - | - |
| 1787464803 | 20° C | 79% | 1016 hPa | 0 mm | - | - | - |
| 1787464503 | 19.44° C | 80% | 1016 hPa | 0 mm | - | - | - |
| 1787464204 | 19.44° C | 81% | 1016.2 hPa | 0 mm | - | - | - |
| 1787463903 | 19.44° C | 83% | 1016.2 hPa | 0 mm | - | - | - |
| 1787463624 | 20° C | 83% | 1016.3 hPa | 0 mm | - | - | - |
| 1787463345 | 20° C | 82% | 1016.3 hPa | 0 mm | - | - | - |
* Rain latest hour (hover to see other rain measurements)
** Current wind speed in m/s (hover to see current wind gust speed)